Preview of NWS' New Version of Forecast
This preview is not operational and should not be used for support decisions.

Regional Weather Roundup (RWR)

Issued by National Weather Service (NWS)

                            
000
ASUS43 KBIS 211410
RWRND 

NORTH DAKOTA REGIONAL WEATHER ROUNDUP
NATIONAL WEATHER SERVICE BISMARCK ND
800 AM CST THU FEB 21 2019

NOTE: "FAIR" INDICATES FEW OR NO CLOUDS BELOW 12,000 FEET WITH NO
SIGNIFICANT WEATHER AND/OR OBSTRUCTIONS TO VISIBILITY.


NDZ001>003-009>011-017-211500-
NORTHWEST NORTH DAKOTA
  
CITY           SKY/WX    TMP DP  RH WIND       PRES   REMARKS
WILLISTON      MOCLDY     1  -5  75 CALM      30.04R                  
MINOT          LGT SNOW   7   1  76 W10       30.01R WCI  -8          
MINOT AFB      CLOUDY     4  -1  78 NW13      30.00R WCI -13          
$$
 
NDZ018>021-031>035-040>046-211500-
SOUTHWEST NORTH DAKOTA
  
CITY           SKY/WX    TMP DP  RH WIND       PRES   REMARKS
BISMARCK       MOCLDY     1  -3  83 CALM      30.05R FOG              
DICKINSON      LGT SNOW  -1  -7  75 W7        29.95R WCI -14          
GARRISON         N/A      5   0  79 W7        30.01R WCI  -7          
HETTINGER ARPT CLEAR     -6 -11  79 NW7       29.97S WCI -20          
$$
 
NDZ004>008-012>016-024-026-027-054-211500-
NORTHEAST NORTH DAKOTA
  
CITY           SKY/WX    TMP DP  RH WIND       PRES   REMARKS
GRAND FORKS    CLOUDY    13   9  84 N10       30.02R WCI   0          
DEVILS LAKE    LGT SNOW   9   6  88 NW8       30.01R FOG     WCI  -3  
$$
 
NDZ022-023-025-028>030-036>039-047>053-211500-
SOUTHEAST NORTH DAKOTA
  
CITY           SKY/WX    TMP DP  RH WIND       PRES   REMARKS
FARGO          PTCLDY     6   4  91 W6        30.02R FOG     WCI  -4  
JAMESTOWN      CLOUDY     2  -1  88 NW7       30.01R WCI -11          
$$